This demonstration page uses our WeatherBlox Daily Observations layout. Learn more.

Hourly Observations for April 2, 2019

Temp ( °F °C ) Dew Point ( °F °C ) Humidity (%) Winds ( mph kmh ) Pressure ( in mb ) Visibility ( mi km ) Precip ( " mm )
12:15 am 00:15 Cloudy 35 1.7 33 0.6 93 93 N 15 24 30.15 1021 10 16.0934 0 0
12:30 am 00:30 Cloudy 35 1.4 33 0.3 92 92 N 14 22 30.15 1021 10 16.0934 0 0
12:50 am 00:50 Cloudy 33 0.6 32 0 96 96 N 13 20 30.16 1021 10 16.0934 0 0
1:10 am 01:10 Mostly Cloudy 33 0.6 32 0.1 97 97 N 9 15 30.16 1021 10 16.0934 0 0
1:35 am 01:35 Partly Cloudy 33 0.5 32 0 96 96 N 10 17 30.16 1021 10 16.0934 0 0
1:55 am 01:55 Clear 32 0 32 -0.2 99 99 N 8 13 30.17 1022 10 16.0934 0 0
2:15 am 02:15 Mostly Cloudy 32 0 32 -0.1 99 99 NNE 6 9 30.18 1022 10 16.0934 0 0
2:35 am 02:35 Cloudy 32 0 32 -0.1 99 99 N 8 13 30.17 1022 10 16.0934 0 0
2:55 am 02:55 Cloudy 33 0.5 33 0.3 99 99 N 10 17 30.17 1022 10 16.0934 0 0
3:15 am 03:15 Cloudy 33 0.6 33 0.3 98 98 N 9 15 30.16 1021 10 16.0934 0 0
3:35 am 03:35 Cloudy 33 0.5 32 0.1 97 97 N 10 17 30.16 1021 10 16.0934 0 0
3:55 am 03:55 Cloudy 33 0.5 32 0 96 96 N 5 7 30.17 1022 10 16.0934 0 0
4:15 am 04:15 Cloudy 33 0.5 32 0 96 96 N 7 11 30.16 1021 10 16.0934 0 0
4:35 am 04:35 Cloudy 33 0.5 32 0 96 96 N 8 13 30.16 1021 10 16.0934 0 0
4:55 am 04:55 Cloudy 32 0.1 32 0 99 99 NNW 7 11 30.17 1022 10 16.0934 0 0
5:15 am 05:15 Cloudy 32 0.1 32 -0.1 99 99 N 8 13 30.17 1022 10 16.0934 0 0
5:35 am 05:35 Cloudy 32 0 32 -0.2 99 99 NNW 10 17 30.18 1022 10 16.0934 0 0
5:55 am 05:55 Cloudy 32 0 32 -0.1 99 99 NNW 5 7 30.18 1022 10 16.0934 0 0
6:15 am 06:15 Cloudy 32 0 32 -0.1 99 99 NNW 7 11 30.18 1022 10 16.0934 0 0
6:35 am 06:35 Cloudy 32 -0.1 31 -0.5 97 97 NW 6 9 30.18 1022 10 16.0934 0 0
6:55 am 06:55 Cloudy 31 -0.5 31 -0.5 100 100 NW 7 11 30.19 1022 7 11.26538 0 0
7:15 am 07:15 Cloudy 31 -0.5 31 -0.5 100 100 NW 7 11 30.19 1022 7 11.26538 0 0
7:35 am 07:35 Mostly Cloudy with Mist and Fog 31 -0.5 31 -0.5 100 100 NW 3 6 30.2 1023 5 8.0467 0 0
7:55 am 07:55 Partly Cloudy with Mist and Fog 31 -0.5 31 -0.5 100 100 Calm 30.2 1023 5 8.0467 0 0
8:15 am 08:15 Sunny 32 0 32 0 100 100 NW 3 6 30.2 1023 7 11.26538 0 0
8:35 am 08:35 Sunny 32 0 32 0 100 100 NW 7 11 30.21 1023 10 16.0934 0 0
8:55 am 08:55 Sunny 33 0.5 32 0 96 96 NW 6 9 30.21 1023 10 16.0934 0 0
9:15 am 09:15 Sunny 34 1.1 32 0.2 94 94 WNW 6 9 30.21 1023 10 16.0934 0 0
9:35 am 09:35 Sunny 36 2.3 33 0.4 87 87 WNW 7 11 30.2 1023 10 16.0934 0 0
9:55 am 09:55 Sunny 37 3 33 0.4 83 83 NW 5 7 30.19 1022 10 16.0934 0 0
10:15 am 10:15 Sunny 39 4 33 0.6 79 79 NW 6 9 30.19 1022 10 16.0934 0 0
10:35 am 10:35 Sunny 41 5 32 0.1 71 71 WNW 5 7 30.18 1022 10 16.0934 0 0
10:55 am 10:55 Sunny 43 6 32 0.1 66 66 W 5 7 30.17 1022 10 16.0934 0 0
11:15 am 11:15 Sunny 44 6.9 32 0.1 62 62 W 3 6 30.16 1021 10 16.0934 0 0
11:35 am 11:35 Sunny 46 7.5 32 0.2 60 60 W 6 9 30.15 1021 10 16.0934 0 0
11:55 am 11:55 Sunny 46 8 32 0.1 58 58 W 5 7 30.14 1021 10 16.0934 0 0
12:15 pm 12:15 Sunny 49 9.4 32 0.2 53 53 WNW 6 9 30.13 1020 10 16.0934 0 0
12:35 pm 12:35 Sunny 50 9.9 32 -0.1 50 50 NE 3 6 30.1 1019 10 16.0934 0 0
12:55 pm 12:55 Sunny 51 10.7 32 0 48 48 NW 3 6 30.1 1019 10 16.0934 0 0
1:15 pm 13:15 Sunny 53 11.5 33 0.5 47 47 WNW 8 13 30.08 1019 10 16.0934 0 0
1:35 pm 13:35 Partly Cloudy 52 11.3 33 0.4 47 47 NNW 5 7 30.08 1019 10 16.0934 0 0
1:55 pm 13:55 Partly Cloudy 53 11.5 33 0.7 48 48 N 3 6 30.07 1018 10 16.0934 0 0
2:15 pm 14:15 Partly Cloudy 53 11.5 32 0.1 46 46 Calm 30.07 1018 10 16.0934 0 0
2:35 pm 14:35 Partly Cloudy 53 11.4 32 0.1 46 46 NNW 8 13 30.06 1018 10 16.0934 0 0
2:55 pm 14:55 Partly Cloudy 54 12.3 33 0.5 45 45 NNW 5 7 30.04 1017 10 16.0934 0 0
3:15 pm 15:15 Mostly Cloudy 55 12.8 32 0 42 42 Calm 30.04 1017 10 16.0934 0 0
3:35 pm 15:35 Cloudy 54 12 32 0 44 44 NW 3 6 30.04 1017 10 16.0934 0 0
3:55 pm 15:55 Cloudy 55 12.5 32 0.1 43 43 NNW 6 9 30.02 1017 10 16.0934 0 0
4:15 pm 16:15 Mostly Cloudy 56 13.5 33 0.3 41 41 Calm 30.01 1016 10 16.0934 0 0
4:35 pm 16:35 Partly Cloudy 56 13.5 32 0.1 40 40 WNW 5 7 30 1016 10 16.0934 0 0
4:55 pm 16:55 Partly Cloudy 56 13.1 33 0.3 42 42 Calm 30.01 1016 10 16.0934 0 0
5:15 pm 17:15 Partly Cloudy 55 12.8 32 -0.1 41 41 W 3 6 30 1016 10 16.0934 0 0
5:35 pm 17:35 Partly Cloudy 56 13.1 32 0.2 41 41 Calm 30 1016 10 16.0934 0 0
5:55 pm 17:55 Mostly Cloudy 55 13 32 0 41 41 Calm 30 1016 10 16.0934 0 0
6:15 pm 18:15 Partly Cloudy 55 13 32 0 41 41 Calm 30 1016 10 16.0934 0 0
6:35 pm 18:35 Sunny 55 12.8 32 0 42 42 Calm 30 1016 10 16.0934 0 0
6:55 pm 18:55 Partly Cloudy 55 12.9 32 0.1 42 42 ESE 3 6 30 1016 10 16.0934 0 0
7:15 pm 19:15 Partly Cloudy 55 12.6 33 0.3 43 43 SSE 5 7 30.01 1016 10 16.0934 0 0
7:35 pm 19:35 Mostly Cloudy 54 12.1 34 1 47 47 S 5 7 30.02 1017 10 16.0934 0 0
7:55 pm 19:55 Cloudy 53 11.8 36 2.1 52 52 S 7 11 30.03 1017 10 16.0934 0 0
8:15 pm 20:15 Cloudy 52 11.1 36 2.4 55 55 S 7 11 30.03 1017 10 16.0934 0 0
8:35 pm 20:35 Cloudy 51 10.8 36 2.2 56 56 S 8 13 30.04 1017 10 16.0934 0 0
8:55 pm 20:55 Cloudy 51 10.6 36 2.1 56 56 S 7 11 30.05 1018 10 16.0934 0 0
9:15 pm 21:15 Cloudy 49 9.3 37 2.7 64 64 S 6 9 30.06 1018 10 16.0934 0 0
9:35 pm 21:35 Cloudy 48 9.1 37 2.8 65 65 S 6 9 30.07 1018 10 16.0934 0 0
9:55 pm 21:55 Cloudy 48 8.9 37 2.6 65 65 S 6 9 30.08 1019 10 16.0934 0 0
10:15 pm 22:15 Cloudy 48 8.7 37 2.5 65 65 S 6 9 30.08 1019 10 16.0934 0 0
10:35 pm 22:35 Mostly Cloudy 47 8.6 36 2.1 64 64 S 8 13 30.09 1019 10 16.0934 0 0
10:55 pm 22:55 Partly Cloudy 47 8.1 36 2.2 67 67 S 6 9 30.09 1019 10 16.0934 0 0
11:15 pm 23:15 Cloudy 46 7.5 36 2.3 70 70 S 8 13 30.1 1019 10 16.0934 0 0
11:35 pm 23:35 Mostly Cloudy 45 7.2 35 1.9 69 69 S 6 9 30.1 1019 10 16.0934 0 0
11:55 pm 23:55 Partly Cloudy 43 5.9 35 1.5 74 74 S 5 7 30.11 1020 10 16.0934 0 0

Powered by AerisWeather